Location: Famechon
(49.7599°N, 2.0615°E)
Time: 15:36:51
(UTC+00:00)

Cosmos 2219 Rocket - Pass Details

Date: 03 February 2023
Orbit: 826 x 848 km, 71.0° (Epoch: 25 March)

Event Time Altitude Azimuth Distance (km) Brightness Sun altitude
Rises 19:47:25 0° 212° (SSW) 3,354 5.6 -28.8°
Reaches altitude 10° 19:49:50 10° 214° (SW) 2,426 4.8 -29.2°
Enters shadow 19:54:46 67° 248° (WSW) 898 2.3 -30.0°
